Terminal Aerodrome Forecast
Issued by NWS

Home | Current Version | Previous Version | Graphics & Text | Print | Product List | Glossary On
Versions: 1 2 3 4 5 6 7 8 9 10 11 12 13 14 15 16 17 18 19 20 21 22 23 24 25 26 27 28 29
000
FTUS43 KGRB 242147 AAB
TAFATW
TAF AMD
KATW 242147Z 2422/2518 25010KT P6SM BKN080
     FM250200 24004KT P6SM SCT045 BKN080
     FM250800 35005KT P6SM SCT006
      TEMPO 2508/2512 3SM BR BKN007
     FM251400 09009G15KT P6SM SCT022 BKN250=

USA.gov is the U.S. government's official web portal to all federal, state and local government web resources and services.